Location: Newark
(33.6333°S, 78.8500°W)
Time: 13:47:53
(UTC+00:00)

A-11 Canister half - Visible Passes

Search period start: 23 October 2019 00:00
Search period end: 02 November 2019 00:00
Orbit: 1514 x 1686 km, 47.2° (Epoch: 23 October)

Date Brightness Start Highest point End Pass type
(mag) Time Alt. Az. Time Alt. Az. Time Alt. Az.
23 Oct 9.6 02:03:00 10° WSW 02:12:27 48° NW 02:15:35 38° N visible
24 Oct 9.6 01:40:01 10° WSW 01:49:33 52° NW 01:54:09 32° N visible
25 Oct 9.5 01:17:01 10° WSW 01:26:38 55° NW 01:32:47 25° NNE visible
25 Oct 11.0 03:27:28 10° WNW 03:30:14 11° WNW 03:31:01 11° NW visible
26 Oct 9.5 00:54:03 10° WSW 01:03:43 59° NW 01:11:28 18° NNE visible
26 Oct 10.9 03:03:26 10° W 03:07:23 13° WNW 03:09:42 12° NW visible
27 Oct 9.5 00:31:06 10° WSW 00:40:48 63° NW 00:50:12 12° NNE visible
27 Oct 10.9 02:39:44 10° W 02:44:32 14° WNW 02:48:26 11° NNW visible
28 Oct 9.5 00:08:08 10° WSW 00:17:53 66° NW 00:27:53 10° NE visible
28 Oct 10.9 02:16:13 10° W 02:21:41 16° WNW 02:27:13 10° NNW visible
29 Oct 10.9 01:52:49 10° W 01:58:50 18° WNW 02:04:56 10° NNW visible
30 Oct 10.9 01:29:29 10° W 01:35:59 20° NW 01:42:34 10° NNW visible
31 Oct 10.8 01:06:13 10° W 01:13:07 22° NW 01:20:08 10° N visible
01 Nov 10.8 00:43:00 10° WSW 00:50:15 23° NW 00:57:39 10° N visible
